UAL968 KSFO-EHAM

Flight info

Callsign UAL968
Flight time N/A
Altitude 35000
Route TRUKN2 ORRCA DCT FMG DCT KU81M DCT KU90O DCT KU09Q DCT KU18S DCT DURUR/N0492F370 DCT 5530N10000W 62N090W 6530N08000W 6630N07000W/M083F370 DCT DARUB/M084F390 DCT 68N050W 68N040W 6730N03000W 6630N02000W 64N010W DCT RIXUN/N0486F410 DCT UPNAL DCT GIGUL DCT LARDI DCT TOPPA
Aircraft B772/H-SDE2E3FGHIJ5LORVWXY/LB1D1

Departure

Time N/A
Airport San Francisco International Airport (KSFO)

Arrival

Time 2026-04-27 03:27
Airport Amsterdam Airport Schiphol (EHAM)
Time Latitude Longitude Altitude Speed Heading
2026-04-26 22:31 66.18844 -73.97990 37058 ft 537 kts 73°
2026-04-26 22:31 66.19669 -73.89004 37340 ft 535 kts 73°
2026-04-26 22:31 66.20490 -73.80015 37466 ft 536 kts 73°
2026-04-26 22:31 66.21306 -73.71017 37508 ft 536 kts 73°
2026-04-26 22:32 66.22925 -73.52960 37529 ft 536 kts 74°
2026-04-26 22:32 66.24519 -73.34908 37530 ft 535 kts 74°
2026-04-26 22:33 66.26866 -73.07836 37516 ft 535 kts 74°
2026-04-26 22:34 66.28406 -72.89750 37567 ft 535 kts 73°
2026-04-26 22:34 66.29929 -72.71608 37523 ft 537 kts 74°
2026-04-26 22:35 66.31431 -72.53426 37516 ft 537 kts 74°
2026-04-26 22:35 66.32912 -72.35208 37515 ft 537 kts 74°
2026-04-26 22:36 66.34372 -72.16983 37512 ft 537 kts 75°
2026-04-26 22:36 66.35813 -71.98703 37513 ft 537 kts 75°
2026-04-26 22:37 66.37230 -71.80420 37503 ft 538 kts 75°
2026-04-26 22:37 66.38628 -71.62104 37506 ft 538 kts 75°
2026-04-26 22:38 66.40005 -71.43757 37501 ft 538 kts 75°
2026-04-26 22:38 66.41359 -71.25394 37502 ft 538 kts 75°
2026-04-26 22:39 66.42694 -71.06989 37502 ft 539 kts 75°
2026-04-26 22:39 66.44008 -70.88562 37503 ft 539 kts 75°
2026-04-26 22:40 66.45300 -70.70107 37489 ft 539 kts 76°
2026-04-26 22:40 66.46569 -70.51654 37488 ft 538 kts 76°
2026-04-26 22:41 66.47816 -70.33192 37487 ft 538 kts 76°
2026-04-26 22:41 66.49034 -70.14837 37485 ft 538 kts 76°
2026-04-26 22:42 66.50245 -69.96340 37484 ft 538 kts 75°
2026-04-26 22:42 66.51685 -69.77984 37475 ft 536 kts 73°
2026-04-26 22:43 66.53247 -69.59693 37470 ft 536 kts 73°
2026-04-26 22:43 66.54762 -69.41379 37472 ft 536 kts 73°
2026-04-26 22:44 66.55984 -69.25973 37490 ft 537 kts 73°
2026-04-26 22:44 66.57409 -69.07540 37450 ft 538 kts 74°
2026-04-26 22:45 66.58812 -68.89074 37462 ft 538 kts 74°
2026-04-26 22:45 66.60188 -68.70717 37453 ft 538 kts 74°
2026-04-26 22:46 66.61564 -68.52067 37447 ft 538 kts 74°
2026-04-26 22:46 66.62908 -68.33530 37453 ft 539 kts 75°
2026-04-26 22:47 66.64223 -68.15069 37438 ft 539 kts 75°
2026-04-26 22:47 66.65525 -67.96462 37490 ft 539 kts 75°
2026-04-26 22:48 66.66800 -67.77915 37427 ft 540 kts 75°
2026-04-26 22:48 66.68073 -67.59057 37426 ft 539 kts 75°
2026-04-26 22:49 66.69297 -67.40555 37421 ft 538 kts 75°
2026-04-26 22:49 66.70508 -67.21938 37403 ft 537 kts 75°
2026-04-26 22:50 66.71694 -67.03308 37409 ft 537 kts 75°
2026-04-26 22:50 66.72859 -66.84682 37405 ft 536 kts 76°
2026-04-26 22:51 66.74002 -66.66036 37404 ft 537 kts 76°
2026-04-26 22:51 66.75122 -66.47372 37390 ft 537 kts 76°
2026-04-26 22:52 66.76222 -66.28660 37457 ft 537 kts 76°
2026-04-26 22:52 66.77301 -66.09921 37402 ft 537 kts 76°
2026-04-26 22:53 66.78357 -65.91199 37363 ft 537 kts 76°
2026-04-26 22:53 66.79386 -65.72476 37341 ft 535 kts 77°
2026-04-26 22:54 66.80389 -65.53814 37360 ft 533 kts 77°
2026-04-26 22:54 66.81371 -65.35183 37343 ft 533 kts 77°
2026-04-26 22:55 66.82331 -65.16554 37340 ft 532 kts 77°
2026-04-26 22:55 66.83269 -64.97909 37360 ft 532 kts 77°
2026-04-26 22:56 66.84181 -64.79241 37339 ft 533 kts 77°
2026-04-26 22:56 66.84629 -64.69887 37443 ft 533 kts 78°
2026-04-26 22:56 66.85073 -64.60533 37412 ft 534 kts 78°
2026-04-26 22:57 66.85948 -64.41795 37389 ft 534 kts 78°
2026-04-26 22:57 66.86797 -64.23069 37380 ft 533 kts 78°
2026-04-26 22:58 66.87622 -64.04385 37416 ft 531 kts 78°
2026-04-26 22:58 66.88416 -63.85837 37386 ft 530 kts 78°
2026-04-26 22:59 66.89196 -63.67183 37390 ft 531 kts 78°
2026-04-26 22:59 66.89953 -63.48507 37404 ft 530 kts 79°
2026-04-26 23:00 66.90688 -63.29836 37395 ft 530 kts 79°
2026-04-26 23:00 66.91402 -63.11118 37406 ft 531 kts 79°
2026-04-26 23:01 66.92095 -62.92377 37422 ft 532 kts 79°
2026-04-26 23:01 66.92766 -62.73589 37401 ft 531 kts 79°
2026-04-26 23:02 66.93412 -62.54830 37390 ft 532 kts 80°
2026-04-26 23:02 66.94038 -62.36065 37372 ft 531 kts 80°
2026-04-26 23:03 66.94642 -62.17316 37381 ft 530 kts 80°
2026-04-26 23:03 66.95221 -61.98572 37367 ft 530 kts 80°
2026-04-26 23:04 66.95781 -61.79803 37356 ft 530 kts 80°
2026-04-26 23:04 66.96315 -61.61040 37355 ft 530 kts 80°
2026-04-26 23:05 66.96829 -61.42250 37375 ft 530 kts 81°
2026-04-26 23:05 66.97324 -61.23442 37352 ft 530 kts 81°
2026-04-26 23:06 66.97791 -61.04666 37344 ft 529 kts 81°
2026-04-26 23:06 66.98236 -60.85922 37343 ft 528 kts 82°
2026-04-26 23:07 66.98660 -60.67194 37328 ft 527 kts 82°
2026-04-26 23:07 66.99062 -60.48504 37328 ft 527 kts 82°
2026-04-26 23:08 66.99442 -60.29788 37330 ft 527 kts 82°
2026-04-26 23:08 66.99816 -60.11104 37322 ft 525 kts 80°
2026-04-26 23:09 67.00985 -59.92837 37315 ft 517 kts 70°
2026-04-26 23:09 67.03186 -59.75477 37337 ft 512 kts 65°
2026-04-26 23:10 67.05552 -59.58271 37305 ft 512 kts 65°
2026-04-26 23:10 67.07877 -59.41008 37298 ft 512 kts 65°
2026-04-26 23:11 67.10153 -59.23713 37291 ft 511 kts 66°
2026-04-26 23:11 67.12400 -59.06376 37283 ft 511 kts 66°
2026-04-26 23:12 67.14626 -58.89021 37283 ft 511 kts 66°
2026-04-26 23:12 67.16834 -58.71644 37312 ft 511 kts 67°
2026-04-26 23:13 67.19013 -58.54335 37276 ft 511 kts 67°
2026-04-26 23:13 67.21179 -58.36923 37267 ft 510 kts 67°
2026-04-26 23:14 67.23330 -58.19463 37257 ft 510 kts 68°
2026-04-26 23:14 67.25456 -58.02020 37243 ft 509 kts 68°
2026-04-26 23:15 67.27563 -57.84550 37230 ft 509 kts 68°
2026-04-26 23:15 67.29649 -57.67059 37234 ft 509 kts 68°
2026-04-26 23:16 67.31717 -57.49546 37239 ft 509 kts 69°
2026-04-26 23:16 67.33766 -57.31985 37222 ft 509 kts 69°
2026-04-26 23:17 67.35792 -57.14422 37220 ft 508 kts 69°
2026-04-26 23:17 67.37800 -56.96828 37218 ft 508 kts 69°
2026-04-26 23:18 67.39786 -56.79236 37203 ft 507 kts 70°
2026-04-26 23:18 67.41752 -56.61615 37204 ft 507 kts 70°
2026-04-26 23:19 67.43700 -56.43964 37212 ft 507 kts 70°
2026-04-26 23:19 67.45626 -56.26292 37197 ft 507 kts 71°
2026-04-26 23:20 67.47535 -56.08576 37181 ft 507 kts 71°
2026-04-26 23:20 67.49421 -55.90863 37160 ft 507 kts 71°
2026-04-26 23:21 67.51288 -55.73125 37159 ft 507 kts 71°
2026-04-26 23:21 67.53134 -55.55377 37163 ft 507 kts 71°
2026-04-26 23:22 67.54965 -55.37549 37159 ft 507 kts 71°
2026-04-26 23:22 67.56775 -55.19712 37158 ft 507 kts 72°
2026-04-26 23:23 67.58566 -55.01843 37126 ft 508 kts 72°
2026-04-26 23:23 67.60340 -54.83916 37135 ft 508 kts 72°
2026-04-26 23:24 67.62081 -54.66095 37124 ft 508 kts 72°
2026-04-26 23:24 67.63818 -54.48099 37121 ft 509 kts 72°
2026-04-26 23:25 67.65533 -54.30082 37136 ft 509 kts 72°
2026-04-26 23:25 67.67233 -54.12001 37117 ft 509 kts 74°
2026-04-26 23:26 67.68911 -53.93908 37110 ft 509 kts 74°
2026-04-26 23:26 67.70567 -53.75799 37105 ft 509 kts 74°
2026-04-26 23:27 67.72201 -53.57698 37088 ft 508 kts 74°
2026-04-26 23:27 67.73816 -53.39562 37091 ft 508 kts 75°
2026-04-26 23:28 67.75409 -53.21423 37078 ft 508 kts 75°
2026-04-26 23:28 67.76982 -53.03250 37096 ft 508 kts 75°
2026-04-26 23:29 67.78275 -52.88123 37074 ft 508 kts 75°
2026-04-26 23:29 67.79809 -52.69917 37052 ft 508 kts 76°
2026-04-26 23:30 67.81326 -52.51664 37062 ft 508 kts 76°
2026-04-26 23:30 67.82821 -52.33401 37050 ft 508 kts 76°
2026-04-26 23:31 67.84300 -52.15089 37038 ft 509 kts 76°
2026-04-26 23:31 67.85758 -51.96741 37048 ft 509 kts 76°
2026-04-26 23:32 67.87196 -51.78361 37027 ft 510 kts 77°
2026-04-26 23:32 67.88619 -51.59897 37024 ft 511 kts 77°
2026-04-26 23:33 67.90016 -51.41425 37026 ft 511 kts 78°
2026-04-26 23:33 67.91398 -51.22907 37003 ft 511 kts 78°
2026-04-26 23:34 67.92759 -51.04357 37008 ft 512 kts 78°
2026-04-26 23:34 67.94102 -50.85734 36994 ft 513 kts 78°
2026-04-26 23:35 67.95426 -50.67082 36999 ft 513 kts 79°
2026-04-26 23:35 67.96717 -50.48572 36989 ft 511 kts 79°
2026-04-26 23:36 67.97990 -50.30006 36981 ft 508 kts 79°
2026-04-26 23:36 67.99239 -50.11509 36991 ft 506 kts 80°
2026-04-26 23:37 68.00287 -49.92998 36991 ft 504 kts 85°
2026-04-26 23:37 68.00826 -49.74372 36998 ft 503 kts 86°
2026-04-26 23:38 68.01301 -49.55752 37008 ft 503 kts 86°
2026-04-26 23:38 68.01784 -49.37123 37019 ft 503 kts 87°
2026-04-26 23:39 68.02265 -49.18516 37009 ft 503 kts 87°
2026-04-26 23:39 68.02727 -48.99895 37008 ft 502 kts 87°
2026-04-26 23:40 68.03169 -48.81282 37003 ft 502 kts 87°
2026-04-26 23:40 68.03590 -48.62659 37005 ft 502 kts 88°
2026-04-26 23:41 68.03990 -48.44025 36992 ft 502 kts 88°
2026-04-26 23:41 68.04367 -48.25397 36995 ft 502 kts 88°
2026-04-26 23:42 68.04725 -48.06738 36991 ft 503 kts 89°
2026-04-26 23:42 68.05221 -47.78763 36984 ft 502 kts 89°
2026-04-26 23:43 68.05525 -47.60105 36983 ft 502 kts 89°
2026-04-26 23:43 68.05808 -47.41453 36974 ft 502 kts 90°
2026-04-26 23:44 68.06070 -47.22777 36962 ft 502 kts 90°
2026-04-26 23:44 68.06310 -47.04241 36961 ft 502 kts 90°
2026-04-26 23:45 68.06530 -46.85582 36949 ft 502 kts 90°
2026-04-26 23:45 68.06731 -46.66918 36927 ft 502 kts 91°
2026-04-26 23:46 68.06908 -46.48265 36927 ft 502 kts 91°
2026-04-26 23:46 68.07064 -46.29505 36906 ft 501 kts 91°
2026-04-26 23:47 68.07200 -46.10862 36874 ft 501 kts 91°
2026-04-26 23:47 68.07314 -45.92338 36792 ft 501 kts 92°
2026-04-26 23:48 68.07409 -45.73706 36819 ft 501 kts 92°
2026-04-26 23:48 68.07480 -45.55073 36761 ft 501 kts 92°
2026-04-26 23:49 68.07532 -45.36315 36717 ft 501 kts 93°
2026-04-26 23:49 68.07563 -45.17808 36712 ft 501 kts 93°
2026-04-26 23:50 68.07572 -44.99166 36674 ft 501 kts 94°
2026-04-26 23:50 68.07560 -44.80517 36671 ft 501 kts 94°
2026-04-26 23:51 68.07527 -44.61874 36678 ft 501 kts 94°
2026-04-26 23:51 68.07475 -44.43257 36668 ft 501 kts 94°
2026-04-26 23:52 68.07400 -44.24628 36675 ft 501 kts 95°
2026-04-26 23:52 68.07305 -44.05979 36666 ft 501 kts 95°
2026-04-26 23:53 68.07190 -43.87360 36675 ft 501 kts 95°
2026-04-26 23:53 68.07051 -43.68714 36680 ft 501 kts 96°
2026-04-26 23:54 68.06892 -43.50072 36685 ft 501 kts 96°
2026-04-26 23:54 68.06712 -43.31442 36689 ft 501 kts 96°
2026-04-26 23:55 68.06513 -43.12793 36669 ft 501 kts 96°
2026-04-26 23:55 68.06292 -42.94182 36677 ft 501 kts 97°
2026-04-26 23:56 68.06048 -42.75548 36690 ft 501 kts 97°
2026-04-26 23:56 68.05785 -42.56933 36679 ft 501 kts 97°
2026-04-26 23:57 68.05500 -42.38296 36686 ft 502 kts 97°
2026-04-26 23:57 68.05195 -42.19678 36690 ft 502 kts 97°
2026-04-26 23:58 68.04868 -42.01048 36686 ft 502 kts 97°
2026-04-26 23:58 68.04521 -41.82438 36674 ft 501 kts 98°
2026-04-26 23:59 68.04153 -41.63865 36685 ft 501 kts 98°
2026-04-26 23:59 68.03766 -41.45404 36688 ft 501 kts 98°
2026-04-27 00:00 68.03357 -41.26844 36701 ft 500 kts 99°
2026-04-27 00:00 68.02928 -41.08299 36704 ft 500 kts 99°
2026-04-27 00:01 68.02477 -40.89756 36700 ft 500 kts 99°
2026-04-27 00:01 68.02005 -40.71225 36719 ft 501 kts 99°
2026-04-27 00:02 68.01513 -40.52697 36678 ft 500 kts 99°
2026-04-27 00:02 68.01001 -40.34194 36714 ft 500 kts 100°
2026-04-27 00:03 68.00468 -40.15683 36746 ft 500 kts 100°
2026-04-27 00:03 67.99921 -39.97197 36736 ft 500 kts 99°
2026-04-27 00:04 67.99510 -39.78648 36762 ft 502 kts 98°
2026-04-27 00:04 67.99164 -39.60045 36763 ft 502 kts 98°
2026-04-27 00:05 67.98787 -39.41450 36757 ft 502 kts 99°
2026-04-27 00:05 67.98367 -39.22865 36771 ft 502 kts 99°
2026-04-27 00:06 67.97920 -39.04315 36777 ft 501 kts 99°
2026-04-27 00:06 67.97451 -38.85799 36765 ft 501 kts 99°
2026-04-27 00:07 67.96963 -38.67298 36768 ft 501 kts 101°
2026-04-27 00:07 67.96453 -38.48781 36786 ft 501 kts 100°
2026-04-27 00:08 67.95919 -38.30262 36778 ft 502 kts 100°
2026-04-27 00:08 67.95374 -38.11846 36804 ft 502 kts 101°
2026-04-27 00:09 67.94804 -37.93321 36804 ft 503 kts 102°
2026-04-27 00:09 67.94206 -37.74788 36763 ft 503 kts 101°
2026-04-27 00:10 67.93598 -37.56277 36833 ft 502 kts 101°
2026-04-27 00:10 67.92964 -37.37806 36815 ft 502 kts 102°
2026-04-27 00:11 67.92303 -37.19295 36867 ft 503 kts 101°
2026-04-27 00:11 67.91625 -37.00792 36873 ft 503 kts 101°
2026-04-27 00:12 67.90935 -36.82307 36858 ft 503 kts 102°
2026-04-27 00:12 67.90218 -36.63822 36919 ft 503 kts 103°
2026-04-27 00:13 67.89479 -36.45374 36870 ft 502 kts 103°
2026-04-27 00:13 67.88713 -36.26969 36901 ft 501 kts 102°
2026-04-27 00:14 67.87936 -36.08609 36978 ft 501 kts 102°
2026-04-27 00:14 67.87138 -35.90258 36981 ft 501 kts 102°
2026-04-27 00:15 67.86319 -35.71910 36983 ft 501 kts 102°
2026-04-27 00:15 67.85623 -35.56676 37039 ft 501 kts 102°
2026-04-27 00:16 67.84766 -35.38353 37036 ft 501 kts 103°
2026-04-27 00:16 67.83889 -35.20030 37033 ft 501 kts 103°
2026-04-27 00:17 67.82991 -35.01725 37020 ft 501 kts 103°
2026-04-27 00:17 67.82075 -34.83467 37043 ft 500 kts 103°
2026-04-27 00:18 67.81138 -34.65229 37034 ft 500 kts 103°
2026-04-27 00:18 67.80180 -34.46989 37035 ft 501 kts 103°
2026-04-27 00:19 67.79202 -34.28763 37039 ft 501 kts 103°
2026-04-27 00:19 67.78203 -34.10543 37017 ft 501 kts 104°
2026-04-27 00:20 67.77190 -33.92449 37010 ft 501 kts 104°
2026-04-27 00:20 67.76149 -33.74237 37010 ft 501 kts 104°
2026-04-27 00:21 67.75089 -33.56049 36990 ft 501 kts 104°
2026-04-27 00:21 67.74010 -33.37893 36978 ft 501 kts 104°
2026-04-27 00:22 67.72910 -33.19752 36987 ft 501 kts 104°
2026-04-27 00:22 67.71791 -33.01637 36969 ft 501 kts 104°
2026-04-27 00:23 67.70650 -32.83532 36972 ft 501 kts 105°
2026-04-27 00:23 67.69490 -32.65456 36979 ft 501 kts 105°
2026-04-27 00:24 67.68309 -32.47376 36961 ft 501 kts 105°
2026-04-27 00:24 67.67111 -32.29356 36926 ft 500 kts 105°
2026-04-27 00:25 67.65896 -32.11380 36948 ft 500 kts 105°
2026-04-27 00:25 67.64657 -31.93399 36951 ft 500 kts 105°
2026-04-27 00:26 67.63400 -31.75440 36934 ft 500 kts 105°
2026-04-27 00:26 67.62123 -31.57500 36930 ft 500 kts 106°
2026-04-27 00:27 67.60824 -31.39556 36929 ft 501 kts 106°
2026-04-27 00:27 67.59506 -31.21634 36901 ft 501 kts 106°
2026-04-27 00:28 67.58170 -31.03741 36855 ft 500 kts 106°
2026-04-27 00:28 67.56817 -30.85870 36902 ft 501 kts 106°
2026-04-27 00:29 67.55447 -30.68066 36882 ft 503 kts 109°
2026-04-27 00:29 67.54038 -30.50156 36884 ft 504 kts 110°
2026-04-27 00:30 67.52612 -30.32179 36885 ft 504 kts 109°
2026-04-27 00:30 67.51169 -30.14273 36886 ft 504 kts 109°
2026-04-27 00:31 67.49711 -29.96405 36890 ft 503 kts 108°
2026-04-27 00:31 67.48458 -29.78391 36886 ft 505 kts 107°
2026-04-27 00:32 67.47310 -29.60335 36886 ft 504 kts 107°
2026-04-27 00:32 67.46113 -29.42344 36890 ft 503 kts 106°
2026-04-27 00:33 67.44864 -29.24406 36892 ft 503 kts 106°
2026-04-27 00:33 67.43595 -29.06485 36887 ft 503 kts 108°
2026-04-27 00:34 67.42299 -28.88587 36885 ft 503 kts 106°
2026-04-27 00:34 67.40979 -28.70701 36877 ft 504 kts 106°
2026-04-27 00:35 67.39645 -28.52831 36890 ft 504 kts 108°
2026-04-27 00:35 67.38284 -28.34940 36889 ft 505 kts 108°
2026-04-27 00:36 67.36907 -28.17084 36905 ft 504 kts 107°
2026-04-27 00:36 67.35516 -27.99258 36896 ft 504 kts 108°
2026-04-27 00:37 67.34812 -27.90357 37174 ft 501 kts 107°
2026-04-27 00:37 67.34111 -27.81551 37515 ft 499 kts 107°
2026-04-27 00:37 67.33405 -27.72731 37682 ft 500 kts 107°
2026-04-27 00:37 67.32691 -27.63906 37909 ft 500 kts 107°
2026-04-27 00:38 67.31974 -27.55113 38126 ft 499 kts 108°
2026-04-27 00:38 67.31245 -27.46295 38273 ft 501 kts 109°
2026-04-27 00:38 67.30512 -27.37486 38411 ft 502 kts 109°
2026-04-27 00:38 67.29776 -27.28656 38630 ft 502 kts 108°
2026-04-27 00:39 67.29039 -27.19834 38767 ft 502 kts 109°
2026-04-27 00:39 67.28291 -27.10981 38815 ft 502 kts 109°
2026-04-27 00:39 67.26786 -26.93348 38857 ft 503 kts 107°
2026-04-27 00:40 67.25252 -26.75661 38907 ft 505 kts 107°
2026-04-27 00:40 67.23695 -26.57931 38909 ft 507 kts 108°
2026-04-27 00:41 67.22115 -26.40187 38883 ft 508 kts 108°
2026-04-27 00:41 67.20513 -26.22442 38896 ft 507 kts 107°
2026-04-27 00:42 67.18896 -26.04745 38897 ft 507 kts 108°
2026-04-27 00:42 67.17262 -25.87115 38891 ft 506 kts 108°
2026-04-27 00:43 67.15611 -25.69545 38887 ft 505 kts 108°
2026-04-27 00:43 67.13944 -25.52011 38878 ft 503 kts 108°
2026-04-27 00:44 67.12273 -25.34690 38898 ft 502 kts 108°
2026-04-27 00:44 67.10575 -25.17305 38877 ft 502 kts 108°
2026-04-27 00:45 67.08857 -24.99922 38902 ft 503 kts 109°
2026-04-27 00:45 67.07117 -24.82540 38901 ft 504 kts 109°
2026-04-27 00:46 67.05355 -24.65142 38885 ft 504 kts 109°
2026-04-27 00:46 67.03572 -24.47753 38902 ft 505 kts 109°
2026-04-27 00:47 67.01770 -24.30385 38900 ft 505 kts 109°
2026-04-27 00:47 66.99948 -24.13033 38884 ft 504 kts 109°
2026-04-27 00:48 66.98109 -23.95734 38890 ft 505 kts 109°
2026-04-27 00:48 66.96252 -23.78461 38902 ft 505 kts 109°
2026-04-27 00:49 66.94373 -23.61185 38909 ft 505 kts 110°
2026-04-27 00:49 66.92475 -23.43935 38906 ft 505 kts 110°
2026-04-27 00:50 66.89594 -23.18116 38909 ft 505 kts 110°
2026-04-27 00:51 66.87649 -23.00933 38913 ft 505 kts 110°
2026-04-27 00:51 66.85689 -22.83803 38909 ft 504 kts 110°
2026-04-27 00:52 66.83707 -22.66680 38917 ft 505 kts 110°
2026-04-27 00:52 66.81706 -22.49575 38920 ft 506 kts 110°
2026-04-27 00:53 66.79683 -22.32460 38919 ft 507 kts 111°
2026-04-27 00:53 66.77641 -22.15375 38926 ft 507 kts 111°
2026-04-27 00:54 66.75578 -21.98293 38929 ft 507 kts 111°
2026-04-27 00:54 66.73498 -21.81259 38926 ft 507 kts 111°
2026-04-27 00:55 66.71398 -21.64239 38929 ft 507 kts 111°
2026-04-27 00:55 66.69285 -21.47286 38926 ft 507 kts 111°
2026-04-27 00:56 66.67146 -21.30305 38940 ft 507 kts 111°
2026-04-27 00:56 66.64991 -21.13368 38941 ft 508 kts 111°
2026-04-27 00:57 66.62815 -20.96437 38946 ft 508 kts 111°
2026-04-27 00:57 66.60622 -20.79547 38938 ft 508 kts 112°
2026-04-27 00:58 66.58411 -20.62689 38937 ft 508 kts 111°
2026-04-27 00:58 66.56193 -20.45940 38949 ft 508 kts 112°
2026-04-27 00:59 66.53948 -20.29151 38948 ft 508 kts 112°
2026-04-27 00:59 66.51686 -20.12376 38948 ft 507 kts 112°
2026-04-27 01:00 66.49242 -19.95701 38954 ft 504 kts 119°
2026-04-27 01:00 66.46670 -19.82676 38962 ft 502 kts 121°
2026-04-27 01:01 66.42989 -19.64559 38954 ft 503 kts 121°
2026-04-27 01:01 66.39827 -19.48952 38958 ft 504 kts 120°
2026-04-27 01:02 66.36665 -19.33322 38959 ft 505 kts 120°
2026-04-27 01:02 66.34008 -19.20252 38944 ft 505 kts 120°
2026-04-27 01:03 66.30813 -19.04646 38960 ft 506 kts 121°
2026-04-27 01:03 66.27599 -18.89076 38962 ft 507 kts 121°
2026-04-27 01:04 66.24366 -18.73528 38970 ft 507 kts 121°
2026-04-27 01:04 66.21113 -18.58004 38972 ft 507 kts 121°
2026-04-27 01:05 66.17846 -18.42524 38978 ft 507 kts 121°
2026-04-27 01:05 66.14568 -18.27102 38983 ft 506 kts 121°
2026-04-27 01:06 66.11302 -18.11850 38978 ft 506 kts 121°
2026-04-27 01:06 66.07996 -17.96525 38982 ft 506 kts 122°
2026-04-27 01:07 66.04683 -17.81271 38992 ft 505 kts 122°
2026-04-27 01:07 66.01349 -17.66036 38985 ft 506 kts 122°
2026-04-27 01:08 65.98003 -17.50853 38999 ft 506 kts 122°
2026-04-27 01:08 65.94642 -17.35708 38996 ft 505 kts 121°
2026-04-27 01:09 65.91266 -17.20600 38992 ft 505 kts 122°
2026-04-27 01:09 65.87880 -17.05557 39000 ft 505 kts 122°
2026-04-27 01:10 65.84482 -16.90558 39022 ft 505 kts 122°
2026-04-27 01:10 65.81072 -16.75617 39028 ft 505 kts 122°
2026-04-27 01:11 65.77634 -16.60656 39029 ft 505 kts 122°
2026-04-27 01:11 65.74187 -16.45759 39046 ft 505 kts 122°
2026-04-27 01:12 65.70732 -16.30930 39044 ft 505 kts 122°
2026-04-27 01:12 65.67259 -16.16122 39038 ft 504 kts 122°
2026-04-27 01:13 65.63774 -16.01368 39057 ft 504 kts 122°
2026-04-27 01:13 65.60285 -15.86697 39056 ft 503 kts 122°
2026-04-27 01:14 65.56777 -15.72041 39059 ft 503 kts 122°
2026-04-27 01:14 65.53258 -15.57440 39061 ft 503 kts 123°
2026-04-27 01:15 65.49753 -15.42993 39070 ft 503 kts 123°
2026-04-27 01:15 65.46213 -15.28495 39055 ft 502 kts 123°
2026-04-27 01:16 65.42656 -15.14026 39078 ft 503 kts 123°
2026-04-27 01:16 65.39080 -14.99580 39075 ft 503 kts 123°
2026-04-27 01:17 65.35490 -14.85167 39081 ft 504 kts 123°
2026-04-27 01:17 65.31884 -14.70784 39080 ft 504 kts 123°
2026-04-27 01:18 65.28265 -14.56440 39070 ft 504 kts 123°
2026-04-27 01:18 65.24632 -14.42139 39078 ft 504 kts 123°
2026-04-27 01:19 65.20981 -14.27858 39069 ft 504 kts 123°
2026-04-27 01:19 65.17316 -14.13615 39085 ft 505 kts 123°
2026-04-27 01:20 65.13645 -13.99441 39107 ft 505 kts 123°
2026-04-27 01:20 65.09932 -13.85195 39102 ft 505 kts 124°
2026-04-27 01:21 65.06218 -13.71034 39104 ft 505 kts 124°
2026-04-27 01:21 65.02491 -13.56920 39115 ft 505 kts 124°
2026-04-27 01:22 64.98748 -13.42830 39109 ft 506 kts 124°
2026-04-27 01:22 64.94993 -13.28788 39116 ft 506 kts 124°
2026-04-27 01:23 64.91218 -13.14759 39131 ft 507 kts 124°
2026-04-27 01:23 64.87430 -13.00769 39110 ft 507 kts 124°
2026-04-27 01:24 64.83632 -12.86828 39106 ft 506 kts 124°
2026-04-27 01:24 64.79823 -12.72935 39129 ft 506 kts 124°
2026-04-27 01:25 64.76007 -12.59102 39096 ft 505 kts 124°
2026-04-27 01:25 64.72177 -12.45305 39122 ft 505 kts 124°
2026-04-27 01:26 64.68331 -12.31537 39123 ft 506 kts 124°
2026-04-27 01:26 64.64497 -12.17897 39130 ft 506 kts 124°
2026-04-27 01:27 64.60625 -12.04202 39123 ft 505 kts 124°
2026-04-27 01:27 64.56746 -11.90568 39124 ft 505 kts 125°
2026-04-27 01:28 64.52861 -11.76993 39125 ft 504 kts 125°
2026-04-27 01:28 64.48963 -11.63458 39116 ft 504 kts 125°
2026-04-27 01:29 64.45060 -11.49985 39129 ft 503 kts 125°
2026-04-27 01:29 64.41145 -11.36549 39129 ft 503 kts 125°
2026-04-27 01:30 64.37219 -11.23161 39128 ft 504 kts 125°
2026-04-27 01:30 64.33277 -11.09792 39147 ft 504 kts 125°
2026-04-27 01:31 64.29318 -10.96451 39139 ft 504 kts 125°
2026-04-27 01:31 64.25346 -10.83142 39145 ft 504 kts 126°
2026-04-27 01:32 64.21359 -10.69860 39144 ft 504 kts 126°
2026-04-27 01:32 64.17363 -10.56629 39144 ft 504 kts 126°
2026-04-27 01:33 64.13356 -10.43435 39151 ft 504 kts 126°
2026-04-27 01:33 64.09337 -10.30282 39150 ft 504 kts 126°
2026-04-27 01:34 64.05310 -10.17174 39156 ft 504 kts 126°
2026-04-27 01:34 64.01275 -10.04110 39153 ft 503 kts 126°
2026-04-27 01:35 63.96997 -9.91550 39149 ft 501 kts 130°
2026-04-27 01:35 63.92505 -9.79419 39151 ft 501 kts 131°
2026-04-27 01:36 63.88006 -9.67328 39159 ft 501 kts 131°
2026-04-27 01:36 63.83509 -9.55228 39159 ft 502 kts 131°
2026-04-27 01:37 63.79014 -9.43163 39162 ft 502 kts 131°
2026-04-27 01:37 63.74498 -9.31100 39157 ft 502 kts 131°
2026-04-27 01:38 63.69996 -9.19145 39163 ft 503 kts 131°
2026-04-27 01:38 63.65452 -9.07147 39165 ft 504 kts 131°
2026-04-27 01:39 63.60891 -8.95170 39167 ft 504 kts 131°
2026-04-27 01:39 63.56316 -8.83220 39165 ft 504 kts 131°
2026-04-27 01:40 63.51731 -8.71307 39166 ft 504 kts 131°
2026-04-27 01:40 63.47138 -8.59436 39163 ft 504 kts 131°
2026-04-27 01:41 63.42531 -8.47597 39169 ft 504 kts 131°
2026-04-27 01:41 63.37919 -8.35802 39173 ft 505 kts 131°
2026-04-27 01:42 63.33288 -8.24025 39177 ft 505 kts 132°
2026-04-27 01:42 63.28651 -8.12294 39177 ft 505 kts 132°
2026-04-27 01:43 63.24000 -8.00591 39177 ft 505 kts 132°
2026-04-27 01:43 63.19339 -7.88924 39166 ft 505 kts 132°
2026-04-27 01:44 63.14669 -7.77297 39176 ft 505 kts 132°
2026-04-27 01:44 63.09988 -7.65702 39177 ft 506 kts 132°
2026-04-27 01:45 63.05294 -7.54135 39191 ft 506 kts 132°
2026-04-27 01:45 63.00583 -7.42587 39179 ft 507 kts 133°
2026-04-27 01:46 62.95894 -7.31154 39178 ft 507 kts 133°
2026-04-27 01:46 62.91133 -7.19606 39175 ft 507 kts 133°
2026-04-27 01:47 62.86393 -7.08167 39177 ft 507 kts 133°
2026-04-27 01:47 62.82447 -6.98688 39181 ft 507 kts 133°
2026-04-27 01:48 62.77685 -6.87307 39182 ft 507 kts 133°
2026-04-27 01:48 62.72143 -6.74133 39182 ft 507 kts 133°
2026-04-27 01:49 62.68137 -6.64659 39193 ft 507 kts 133°
2026-04-27 01:49 62.63349 -6.53389 39180 ft 507 kts 133°
2026-04-27 01:50 62.58551 -6.42153 39183 ft 507 kts 133°
2026-04-27 01:50 62.53752 -6.30970 39182 ft 506 kts 133°
2026-04-27 01:51 62.48948 -6.19835 39179 ft 506 kts 133°
2026-04-27 01:51 62.44134 -6.08731 39182 ft 506 kts 133°
2026-04-27 01:52 62.39309 -5.97660 39170 ft 506 kts 134°
2026-04-27 01:52 62.34473 -5.86618 39177 ft 507 kts 134°
2026-04-27 01:53 62.29630 -5.75616 39192 ft 507 kts 134°
2026-04-27 01:53 62.24770 -5.64630 39184 ft 507 kts 134°
2026-04-27 01:54 62.19939 -5.53764 39184 ft 507 kts 134°
2026-04-27 01:54 62.15035 -5.42789 39181 ft 506 kts 134°
2026-04-27 01:55 62.10162 -5.31936 39171 ft 506 kts 134°
2026-04-27 01:55 62.05278 -5.21113 39183 ft 506 kts 134°
2026-04-27 01:56 61.97938 -5.04950 39183 ft 506 kts 134°
2026-04-27 01:56 61.93064 -4.94281 39188 ft 506 kts 134°
2026-04-27 01:57 61.88150 -4.83578 39188 ft 506 kts 135°
2026-04-27 01:57 61.83230 -4.72914 39183 ft 506 kts 135°
2026-04-27 01:58 61.78305 -4.62291 39181 ft 506 kts 135°
2026-04-27 01:58 61.73372 -4.51703 39193 ft 506 kts 135°
2026-04-27 01:59 61.68432 -4.41152 39192 ft 506 kts 135°
2026-04-27 01:59 61.63475 -4.30614 39192 ft 506 kts 135°
2026-04-27 02:00 61.58511 -4.20110 39209 ft 506 kts 135°
2026-04-27 02:00 61.53541 -4.09648 39200 ft 506 kts 135°
2026-04-27 02:01 61.48562 -3.99217 39199 ft 506 kts 135°
2026-04-27 02:01 61.43578 -3.88824 39198 ft 506 kts 135°
2026-04-27 02:02 61.38591 -3.78476 39202 ft 505 kts 136°
2026-04-27 02:02 61.33627 -3.68221 39201 ft 505 kts 136°
2026-04-27 02:03 61.28597 -3.57882 39198 ft 505 kts 136°
2026-04-27 02:03 61.23587 -3.47630 39211 ft 505 kts 136°
2026-04-27 02:04 61.18572 -3.37419 39211 ft 505 kts 136°
2026-04-27 02:04 61.13549 -3.27235 39208 ft 505 kts 136°
2026-04-27 02:05 61.08551 -3.17149 39212 ft 505 kts 136°
2026-04-27 02:05 61.03518 -3.07036 39215 ft 505 kts 136°
2026-04-27 02:06 60.98118 -2.97857 39204 ft 503 kts 147°
2026-04-27 02:06 60.92074 -2.90652 39217 ft 502 kts 153°
2026-04-27 02:07 60.85946 -2.83727 39218 ft 503 kts 152°
2026-04-27 02:07 60.79822 -2.76758 39220 ft 504 kts 152°
2026-04-27 02:08 60.73705 -2.69771 39232 ft 504 kts 152°
2026-04-27 02:08 60.67585 -2.62797 39221 ft 503 kts 152°
2026-04-27 02:09 60.61468 -2.55861 39221 ft 503 kts 153°
2026-04-27 02:09 60.55350 -2.48956 39225 ft 503 kts 153°
2026-04-27 02:10 60.49228 -2.42080 39229 ft 503 kts 153°
2026-04-27 02:10 60.43109 -2.35235 39214 ft 502 kts 153°
2026-04-27 02:11 60.36986 -2.28416 39228 ft 502 kts 153°
2026-04-27 02:11 60.30857 -2.21621 39232 ft 503 kts 153°
2026-04-27 02:12 60.24724 -2.14849 39238 ft 503 kts 153°
2026-04-27 02:12 60.18575 -2.08090 39234 ft 503 kts 153°
2026-04-27 02:13 60.12427 -2.01360 39231 ft 503 kts 153°
2026-04-27 02:13 60.06274 -1.94654 39245 ft 503 kts 153°
2026-04-27 02:14 60.00126 -1.87981 39241 ft 503 kts 153°
2026-04-27 02:14 59.93976 -1.81335 39250 ft 502 kts 153°
2026-04-27 02:15 59.87824 -1.74715 39247 ft 502 kts 153°
2026-04-27 02:15 59.81671 -1.68121 39244 ft 502 kts 154°
2026-04-27 02:16 59.75519 -1.61557 39252 ft 502 kts 154°
2026-04-27 02:16 59.69366 -1.55021 39260 ft 502 kts 154°
2026-04-27 02:17 59.63200 -1.48496 39252 ft 502 kts 154°
2026-04-27 02:17 59.57032 -1.41998 39258 ft 503 kts 154°
2026-04-27 02:18 59.50861 -1.35523 39260 ft 503 kts 154°
2026-04-27 02:18 59.44678 -1.29063 39273 ft 503 kts 154°
2026-04-27 02:19 59.38493 -1.22627 39259 ft 503 kts 154°
2026-04-27 02:19 59.32313 -1.16224 39260 ft 502 kts 154°
2026-04-27 02:20 59.26130 -1.09843 39272 ft 502 kts 154°
2026-04-27 02:20 59.19944 -1.03487 39268 ft 502 kts 154°
2026-04-27 02:21 59.13795 -0.97194 39277 ft 502 kts 154°
2026-04-27 02:21 59.07607 -0.90887 39278 ft 502 kts 154°
2026-04-27 02:22 59.01407 -0.84593 39267 ft 502 kts 155°
2026-04-27 02:22 58.95212 -0.78329 39277 ft 502 kts 155°
2026-04-27 02:23 58.89012 -0.72088 39281 ft 502 kts 155°
2026-04-27 02:23 58.82811 -0.65870 39280 ft 502 kts 155°
2026-04-27 02:24 58.76602 -0.59670 39279 ft 502 kts 155°
2026-04-27 02:24 58.70390 -0.53491 39281 ft 502 kts 155°
2026-04-27 02:25 58.64178 -0.47338 39285 ft 502 kts 155°
2026-04-27 02:25 58.57959 -0.41202 39285 ft 503 kts 155°
2026-04-27 02:26 58.51740 -0.35090 39289 ft 503 kts 155°
2026-04-27 02:26 58.45515 -0.28998 39274 ft 502 kts 155°
2026-04-27 02:27 58.39288 -0.22928 39285 ft 502 kts 155°
2026-04-27 02:27 58.33062 -0.16883 39289 ft 502 kts 155°
2026-04-27 02:28 58.26834 -0.10860 39288 ft 503 kts 155°
2026-04-27 02:28 58.20594 -0.04849 39291 ft 503 kts 155°
2026-04-27 02:29 58.14354 0.01137 39290 ft 503 kts 155°
2026-04-27 02:29 58.08114 0.07102 39294 ft 502 kts 156°
2026-04-27 02:30 58.01873 0.13043 39293 ft 502 kts 156°
2026-04-27 02:30 57.95626 0.18965 39293 ft 502 kts 156°
2026-04-27 02:31 57.89379 0.24865 39286 ft 502 kts 156°
2026-04-27 02:31 57.83135 0.30740 39296 ft 502 kts 156°
2026-04-27 02:32 57.77936 0.35613 39294 ft 502 kts 156°
2026-04-27 02:32 57.71683 0.41454 39293 ft 502 kts 156°
2026-04-27 02:33 57.65422 0.47279 39294 ft 502 kts 156°
2026-04-27 02:33 57.59163 0.53080 39288 ft 502 kts 156°
2026-04-27 02:34 57.52901 0.58862 39298 ft 502 kts 156°
2026-04-27 02:34 57.46637 0.64623 39295 ft 502 kts 156°
2026-04-27 02:35 57.40373 0.70362 39293 ft 502 kts 156°
2026-04-27 02:35 57.34119 0.76070 39288 ft 501 kts 156°
2026-04-27 02:36 57.27905 0.81720 39298 ft 501 kts 156°
2026-04-27 02:36 57.21649 0.87386 39294 ft 501 kts 156°
2026-04-27 02:37 57.15397 0.93027 39295 ft 500 kts 156°
2026-04-27 02:37 57.09141 0.98651 39286 ft 500 kts 156°
2026-04-27 02:38 57.02887 1.04252 39296 ft 500 kts 156°
2026-04-27 02:38 56.96638 1.09828 39302 ft 499 kts 157°
2026-04-27 02:39 56.90392 1.15379 39300 ft 499 kts 157°
2026-04-27 02:39 56.84134 1.20921 39313 ft 499 kts 157°
2026-04-27 02:40 56.77881 1.26437 39301 ft 499 kts 157°
2026-04-27 02:40 56.71637 1.31925 39302 ft 499 kts 157°
2026-04-27 02:41 56.65376 1.37408 39307 ft 499 kts 157°
2026-04-27 02:41 56.59114 1.42871 39309 ft 499 kts 157°
2026-04-27 02:42 56.52851 1.48315 39298 ft 499 kts 157°
2026-04-27 02:42 56.46587 1.53740 39316 ft 499 kts 157°
2026-04-27 02:43 56.40323 1.59145 39306 ft 499 kts 157°
2026-04-27 02:43 56.34059 1.64530 39318 ft 499 kts 157°
2026-04-27 02:44 56.27788 1.69902 39301 ft 499 kts 158°
2026-04-27 02:44 56.21522 1.75250 39315 ft 498 kts 158°
2026-04-27 02:45 56.15259 1.80576 39314 ft 498 kts 158°
2026-04-27 02:45 56.08997 1.85882 39314 ft 498 kts 158°
2026-04-27 02:46 56.02739 1.91165 39318 ft 497 kts 158°
2026-04-27 02:46 55.96476 1.96433 39314 ft 497 kts 158°
2026-04-27 02:47 55.90222 2.01676 39321 ft 497 kts 158°
2026-04-27 02:47 55.83959 2.06906 39320 ft 497 kts 158°
2026-04-27 02:48 55.77701 2.12115 39321 ft 497 kts 158°
2026-04-27 02:48 55.71487 2.17268 39309 ft 496 kts 158°
2026-04-27 02:49 55.65230 2.22439 39316 ft 496 kts 158°
2026-04-27 02:49 55.58976 2.27588 39328 ft 496 kts 158°
2026-04-27 02:50 55.52716 2.32726 39328 ft 496 kts 158°
2026-04-27 02:50 55.46456 2.37848 39320 ft 496 kts 158°
2026-04-27 02:51 55.40229 2.43085 39326 ft 497 kts 155°
2026-04-27 02:51 55.34144 2.48847 39338 ft 497 kts 154°
2026-04-27 02:52 55.28063 2.54642 39330 ft 498 kts 154°
2026-04-27 02:52 55.21964 2.60399 39316 ft 498 kts 155°
2026-04-27 02:53 55.15868 2.66111 39325 ft 497 kts 155°
2026-04-27 02:53 55.09762 2.71807 39335 ft 497 kts 155°
2026-04-27 02:54 55.03651 2.77490 39335 ft 498 kts 155°
2026-04-27 02:54 54.97537 2.83158 39333 ft 498 kts 155°
2026-04-27 02:55 54.91419 2.88810 39333 ft 498 kts 155°
2026-04-27 02:55 54.85302 2.94441 39335 ft 498 kts 155°
2026-04-27 02:56 54.79175 3.00062 39332 ft 498 kts 155°
2026-04-27 02:56 54.73088 3.05628 39353 ft 498 kts 155°
2026-04-27 02:57 54.66961 3.11214 39345 ft 498 kts 155°
2026-04-27 02:57 54.60727 3.16309 39336 ft 493 kts 163°
2026-04-27 02:58 54.54164 3.19404 39348 ft 487 kts 172°
2026-04-27 02:58 54.47522 3.21646 39355 ft 487 kts 173°
2026-04-27 02:59 54.40867 3.23901 39343 ft 487 kts 172°
2026-04-27 02:59 54.34234 3.26204 39349 ft 487 kts 172°
2026-04-27 03:00 54.27593 3.28528 39348 ft 487 kts 172°
2026-04-27 03:00 54.20966 3.30842 39347 ft 487 kts 172°
2026-04-27 03:01 54.14329 3.33148 39338 ft 486 kts 172°
2026-04-27 03:01 54.07695 3.35443 39348 ft 486 kts 172°
2026-04-27 03:02 54.01063 3.37731 39346 ft 487 kts 172°
2026-04-27 03:02 53.97730 3.38876 38982 ft 494 kts 172°
2026-04-27 03:02 53.94341 3.40038 38166 ft 496 kts 173°
2026-04-27 03:03 53.91022 3.41183 37449 ft 478 kts 173°
2026-04-27 03:03 53.84759 3.43347 36135 ft 449 kts 174°
2026-04-27 03:03 53.81678 3.44399 35385 ft 448 kts 175°
2026-04-27 03:04 53.78602 3.45430 34616 ft 466 kts 175°
2026-04-27 03:04 53.75353 3.46513 33676 ft 483 kts 175°
2026-04-27 03:04 53.72052 3.47632 32693 ft 485 kts 174°
2026-04-27 03:04 53.68735 3.48768 31703 ft 486 kts 174°
2026-04-27 03:05 53.65416 3.49901 30792 ft 487 kts 174°
2026-04-27 03:05 53.62122 3.51021 30102 ft 481 kts 174°
2026-04-27 03:05 53.58857 3.52018 29362 ft 472 kts 177°
2026-04-27 03:05 53.55628 3.52739 28641 ft 465 kts 177°
2026-04-27 03:06 53.52444 3.53430 27964 ft 459 kts 177°
2026-04-27 03:06 53.49302 3.54119 27286 ft 454 kts 177°
2026-04-27 03:06 53.46179 3.54814 26593 ft 450 kts 176°
2026-04-27 03:06 53.43083 3.55510 25896 ft 448 kts 176°
2026-04-27 03:07 53.39981 3.56207 25294 ft 453 kts 176°
2026-04-27 03:07 53.36857 3.57008 24901 ft 455 kts 174°
2026-04-27 03:07 53.33745 3.57920 24667 ft 451 kts 173°
2026-04-27 03:07 53.30670 3.58857 24449 ft 448 kts 173°
2026-04-27 03:08 53.27619 3.59787 24211 ft 445 kts 173°
2026-04-27 03:08 53.24581 3.60700 23926 ft 443 kts 173°
2026-04-27 03:08 53.21550 3.61596 23571 ft 441 kts 173°
2026-04-27 03:08 53.18532 3.62478 23226 ft 439 kts 173°
2026-04-27 03:09 53.15527 3.63351 22912 ft 437 kts 173°
2026-04-27 03:09 53.12542 3.64213 22603 ft 435 kts 173°
2026-04-27 03:09 53.09567 3.65072 22339 ft 432 kts 173°
2026-04-27 03:09 53.06616 3.65922 22056 ft 430 kts 173°
2026-04-27 03:10 53.03674 3.66769 21775 ft 428 kts 173°
2026-04-27 03:10 53.00742 3.67612 21499 ft 426 kts 173°
2026-04-27 03:10 52.97836 3.68447 21006 ft 424 kts 173°
2026-04-27 03:10 52.94934 3.69279 20338 ft 421 kts 172°
2026-04-27 03:11 52.92062 3.70102 19725 ft 417 kts 172°
2026-04-27 03:11 52.89212 3.70918 19113 ft 414 kts 172°
2026-04-27 03:11 52.86387 3.71725 18489 ft 410 kts 172°
2026-04-27 03:11 52.83586 3.72525 17806 ft 407 kts 172°
2026-04-27 03:12 52.80805 3.73318 17166 ft 403 kts 172°
2026-04-27 03:12 52.78054 3.74102 16572 ft 400 kts 172°
2026-04-27 03:12 52.75324 3.74856 15984 ft 396 kts 174°
2026-04-27 03:12 52.72595 3.75360 15391 ft 392 kts 177°
2026-04-27 03:13 52.69886 3.75721 14823 ft 390 kts 177°
2026-04-27 03:13 52.67187 3.76086 14268 ft 388 kts 177°
2026-04-27 03:13 52.64504 3.76487 13657 ft 387 kts 176°
2026-04-27 03:13 52.61833 3.76907 13063 ft 382 kts 175°
2026-04-27 03:14 52.59308 3.77935 12503 ft 375 kts 155°
2026-04-27 03:14 52.57241 3.80411 12369 ft 364 kts 135°
2026-04-27 03:14 52.55713 3.83635 12199 ft 352 kts 120°
2026-04-27 03:14 52.54749 3.87256 12072 ft 340 kts 110°
2026-04-27 03:15 52.53939 3.90839 11916 ft 329 kts 111°
2026-04-27 03:15 52.53129 3.94281 11790 ft 318 kts 111°
2026-04-27 03:15 52.52332 3.97601 11560 ft 310 kts 111°
2026-04-27 03:15 52.51536 4.00893 11199 ft 309 kts 112°
2026-04-27 03:16 52.50742 4.04155 10849 ft 307 kts 112°
2026-04-27 03:16 52.49950 4.07408 10509 ft 305 kts 112°
2026-04-27 03:16 52.49174 4.10584 10375 ft 295 kts 112°
2026-04-27 03:16 52.48412 4.13706 10020 ft 294 kts 112°
2026-04-27 03:17 52.47653 4.16808 9669 ft 293 kts 112°
2026-04-27 03:17 52.46894 4.19906 9319 ft 291 kts 112°
2026-04-27 03:17 52.46141 4.22976 8975 ft 290 kts 112°
2026-04-27 03:17 52.45391 4.26032 8637 ft 288 kts 112°
2026-04-27 03:18 52.44645 4.29062 8313 ft 286 kts 112°
2026-04-27 03:18 52.43900 4.32083 7981 ft 285 kts 112°
2026-04-27 03:18 52.43130 4.35042 7641 ft 277 kts 119°
2026-04-27 03:18 52.41855 4.37323 7334 ft 273 kts 149°
2026-04-27 03:19 52.40709 4.38137 7127 ft 271 kts 166°
2026-04-27 03:19 52.38852 4.38438 6800 ft 269 kts 184°
2026-04-27 03:19 52.36986 4.38189 6468 ft 268 kts 185°
2026-04-27 03:19 52.35126 4.37927 6132 ft 268 kts 185°
2026-04-27 03:20 52.33267 4.37670 5804 ft 268 kts 185°
2026-04-27 03:20 52.31416 4.37424 5485 ft 268 kts 185°
2026-04-27 03:20 52.29557 4.37184 5162 ft 267 kts 185°
2026-04-27 03:20 52.27719 4.36950 4971 ft 262 kts 184°
2026-04-27 03:21 52.25933 4.36733 4833 ft 251 kts 181°
2026-04-27 03:21 52.24280 4.37237 4557 ft 243 kts 151°
2026-04-27 03:21 52.23041 4.39074 4213 ft 242 kts 123°
2026-04-27 03:21 52.22227 4.41456 3920 ft 240 kts 114°
2026-04-27 03:22 52.21522 4.43912 3629 ft 239 kts 113°
2026-04-27 03:22 52.20909 4.46391 3354 ft 228 kts 98°
2026-04-27 03:22 52.20825 4.48857 3265 ft 210 kts 88°
2026-04-27 03:22 52.20807 4.51144 3081 ft 204 kts 90°
2026-04-27 03:23 52.21037 4.53403 2801 ft 196 kts 61°
2026-04-27 03:23 52.21772 4.55181 2562 ft 183 kts 55°
2026-04-27 03:23 52.22425 4.56882 2337 ft 169 kts 57°
2026-04-27 03:23 52.23010 4.58417 2137 ft 151 kts 57°
2026-04-27 03:24 52.23545 4.59806 2042 ft 142 kts 57°
2026-04-27 03:24 52.24065 4.61155 1845 ft 139 kts 57°
2026-04-27 03:24 52.24567 4.62456 1656 ft 136 kts 58°
2026-04-27 03:24 52.25073 4.63767 1457 ft 135 kts 58°
2026-04-27 03:25 52.25570 4.65058 1285 ft 134 kts 58°
2026-04-27 03:25 52.26061 4.66331 1097 ft 133 kts 59°
2026-04-27 03:25 52.26551 4.67601 904 ft 131 kts 59°
2026-04-27 03:25 52.27037 4.68854 745 ft 131 kts 59°
2026-04-27 03:26 52.27534 4.70145 546 ft 134 kts 59°
2026-04-27 03:26 52.28026 4.71445 375 ft 136 kts 58°
2026-04-27 03:26 52.28532 4.72763 183 ft 136 kts 57°
2026-04-27 03:26 52.29039 4.74069 29 ft 136 kts 58°
2026-04-27 03:27 52.29507 4.75277 2 ft 110 kts 58°
2026-04-27 03:27 52.29832 4.76121 1 ft 66 kts 58°
2026-04-27 03:27 52.29988 4.76489 2 ft 23 kts 39°
2026-04-27 03:27 52.30075 4.76580 3 ft 11 kts 27°
2026-04-27 03:28 52.30146 4.76640 3 ft 11 kts 27°
2026-04-27 03:28 52.30216 4.76701 3 ft 11 kts 27°
2026-04-27 03:28 52.30285 4.76765 3 ft 12 kts 41°
2026-04-27 03:28 52.30321 4.76848 3 ft 8 kts 58°
2026-04-27 03:29 52.30350 4.76924 4 ft 8 kts 58°
2026-04-27 03:29 52.30380 4.77000 4 ft 8 kts 58°
2026-04-27 03:29 52.30409 4.77058 3 ft 2 kts 22°
2026-04-27 03:29 52.30423 4.77049 3 ft 2 kts 338°
2026-04-27 03:30 52.30437 4.77040 4 ft 2 kts 338°
2026-04-27 03:30 52.30455 4.77022 3 ft 4 kts 329°
2026-04-27 03:30 52.30479 4.76998 3 ft 5 kts 329°
2026-04-27 03:30 52.30510 4.76967 3 ft 6 kts 328°
2026-04-27 03:31 52.30547 4.76929 3 ft 7 kts 328°
2026-04-27 03:31 52.30591 4.76883 3 ft 8 kts 328°
2026-04-27 03:31 52.30644 4.76850 3 ft 9 kts 10°
2026-04-27 03:31 52.30659 4.76934 3 ft 9 kts 101°
2026-04-27 03:32 52.30651 4.77039 3 ft 10 kts 94°
2026-04-27 03:32 52.30648 4.77153 3 ft 10 kts 93°
2026-04-27 03:32 52.30644 4.77275 3 ft 11 kts 94°
2026-04-27 03:32 52.30640 4.77400 3 ft 11 kts 89°
2026-04-27 03:33 52.30645 4.77523 3 ft 11 kts 73°
2026-04-27 03:33 52.30705 4.77589 3 ft 11 kts
2026-04-27 03:33 52.30780 4.77599 3 ft 11 kts
2026-04-27 03:33 52.30857 4.77607 3 ft 11 kts
2026-04-27 03:34 52.30933 4.77615 3 ft 11 kts
2026-04-27 03:34 52.31004 4.77590 3 ft 11 kts 322°
2026-04-27 03:34 52.31049 4.77489 3 ft 11 kts 301°
2026-04-27 03:34 52.31070 4.77370 3 ft 11 kts 275°
2026-04-27 03:35 52.31074 4.77245 3 ft 11 kts 273°
2026-04-27 03:35 52.31079 4.77120 3 ft 11 kts 273°
2026-04-27 03:35 52.31083 4.76995 3 ft 11 kts 273°
2026-04-27 03:35 52.31076 4.76873 3 ft 11 kts 239°
2026-04-27 03:36 52.31021 4.76865 3 ft 4 kts 146°
2026-04-27 03:36 52.31004 4.76890 3 ft 0 kts 137°
2026-04-27 03:36 52.30995 4.76903 3 ft 3 kts 139°
2026-04-27 03:36 52.30984 4.76920 3 ft 1 kts 138°
2026-04-27 03:37 52.30977 4.76929 3 ft 1 kts 139°